This is the latest recevied weather packets stored in our database for station/object KE5KUL-13. If no packets are shown the sender has not sent any weather packets the latest 10 day(s).
| Time | Temp. | Humidity | Pressure | Rain* | Wind** | Luminosity | Snow |
|---|---|---|---|---|---|---|---|
| 1778285419 | 28.33° C | 22% | 1012.8 hPa | 0 mm | - | - | - |
| 1778284817 | 28.33° C | 21% | 1012.7 hPa | 0 mm | - | - | - |
| 1778284217 | 28.89° C | 21% | 1012.8 hPa | 0 mm | - | - | - |
| 1778283619 | 29.44° C | 21% | 1012.8 hPa | 0 mm | - | - | - |
| 1778283019 | 29.44° C | 21% | 1012.9 hPa | 0 mm | - | - | - |
| 1778282417 | 30° C | 21% | 1013.2 hPa | 0 mm | - | - | - |
| 1778281817 | 30.56° C | 20% | 1013 hPa | 0 mm | - | - | - |
| 1778281219 | 30.56° C | 20% | 1013.4 hPa | 0 mm | - | - | - |
| 1778280619 | 30.56° C | 20% | 1013.3 hPa | 0 mm | - | - | - |
| 1778280019 | 31.11° C | 20% | 1013.3 hPa | 0 mm | - | - | - |
| 1778279417 | 31.11° C | 19% | 1013.2 hPa | 0 mm | - | - | - |
| 1778278819 | 31.67° C | 20% | 1013.3 hPa | 0 mm | - | - | - |
| 1778278219 | 31.67° C | 18% | 1013.4 hPa | 0 mm | - | - | - |
| 1778277619 | 32.22° C | 18% | 1013.7 hPa | 0 mm | - | - | - |
| 1778277017 | 32.22° C | 18% | 1013.8 hPa | 0 mm | - | - | - |
| 1778276419 | 32.22° C | 18% | 1013.8 hPa | 0 mm | - | - | - |
| 1778275819 | 32.22° C | 19% | 1013.6 hPa | 0 mm | - | - | - |
| 1778275219 | 31.67° C | 18% | 1013.7 hPa | 0 mm | - | - | - |
| 1778274619 | 32.22° C | 18% | 1014 hPa | 0 mm | - | - | - |
| 1778274019 | 32.22° C | 17% | 1014 hPa | 0 mm | - | - | - |
| 1778273419 | 32.22° C | 18% | 1014.1 hPa | 0 mm | - | - | - |
| 1778272819 | 32.22° C | 18% | 1014.2 hPa | 0 mm | - | - | - |
| 1778272218 | 32.78° C | 16% | 1014.2 hPa | 0 mm | - | - | - |
| 1778271618 | 33.33° C | 17% | 1014.4 hPa | 0 mm | - | - | - |
| 1778271018 | 33.33° C | 17% | 1014.3 hPa | 0 mm | - | - | - |
* Rain latest hour (hover to see other rain measurements)
** Current wind speed in m/s (hover to see current wind gust speed)